GW6010 Weather Reports


time (UTC)temp
C
wind
direction
speed
KPH
gust
KPH
rain 1hr
cm
rain 24hr
cm
rain mn
cm
humidity
%
barometer
mb
20260505093027 3 253 0.0 0.0 0.00 0.08 0.00 95 1014.8
20260505091525 2 253 0.0 0.0 0.00 0.08 0.00 95 1014.9
20260505090030 2 252 0.0 0.0 0.00 0.08 0.00 94 1014.8
20260505084526 3 252 0.0 0.0 0.00 0.08 0.00 94 1014.8
20260505083019 3 252 0.0 0.0 0.00 0.08 0.00 95 1014.8
20260505081524 3 252 0.0 0.0 0.00 0.08 0.00 94 1014.6
20260505080029 3 252 0.0 0.0 0.00 0.08 0.00 94 1014.3
20260505074526 3 252 0.0 0.0 0.00 0.08 0.00 94 1014.3
20260505073018 3 252 0.0 0.0 0.00 0.08 0.00 94 1014.1
20260505071522 3 252 0.0 0.0 0.00 0.08 0.00 93 1014.1
20260505070027 3 252 0.0 0.0 0.00 0.08 0.00 94 1014.0
20260505064526 4 252 0.0 0.0 0.00 0.08 0.00 94 1014.0
20260505063026 4 252 0.0 0.0 0.00 0.08 0.00 93 1014.1
20260505061522 5 252 0.0 0.0 0.00 0.08 0.00 93 1014.1
20260505060024 5 252 0.0 0.0 0.00 0.08 0.00 93 1014.1
20260505054507 5 252 0.0 0.0 0.00 0.08 0.00 93 1013.9
20260505053015 5 252 0.0 0.0 0.00 0.08 0.00 92 1013.8
20260505051516 5 252 0.0 0.0 0.00 0.08 0.00 93 1013.8
20260505041513 6 252 0.0 0.0 0.00 0.08 0.00 92 1013.4
20260505040035 6 252 0.0 0.0 0.00 0.08 0.00 91 1013.4
20260505034533 6 252 0.0 0.0 0.00 0.08 0.08 90 1013.4
20260505033024 6 253 0.0 0.0 0.00 0.08 0.08 90 1013.4
20260505031508 7 253 0.0 0.0 0.00 0.08 0.08 88 1013.5
20260505030016 7 253 0.0 0.0 0.00 0.08 0.08 88 1013.4
20260505024518 7 253 0.0 0.0 0.00 0.08 0.08 87 1013.4
20260505023022 8 254 0.0 0.0 0.00 0.08 0.08 88 1013.4
20260505021524 8 250 0.0 0.0 0.00 0.08 0.08 86 1013.3
20260505020014 8 250 0.0 0.0 0.00 0.08 0.08 85 1013.3
20260505014516 10 248 0.0 1.6 0.00 0.08 0.08 82 1013.2
20260505013024 10 235 0.0 0.0 0.00 0.08 0.08 82 1013.1
20260505011521 11 235 0.0 0.0 0.00 0.08 0.08 79 1013.0
20260505010027 12 235 0.0 0.0 0.00 0.08 0.08 77 1012.9
20260505004517 12 234 0.0 0.0 0.00 0.08 0.08 71 1012.7
20260505003017 14 235 0.0 0.0 0.00 0.08 0.08 66 1012.5
20260505001522 16 226 0.0 0.0 0.00 0.08 0.08 59 1012.4
20260505000004 17 226 1.6 8.0 0.00 0.08 0.08 49 1012.3
20260504234513 19 245 3.2 6.4 0.00 0.08 0.08 44 1012.2
20260504233016 20 255 1.6 9.7 0.00 0.08 0.08 42 1012.1
20260504231502 20 249 3.2 11.3 0.00 0.08 0.08 41 1012.2
20260504230006 20 259 11.3 20.9 0.00 0.08 0.08 38 1012.2
20260504224506 21 252 6.4 19.3 0.00 0.08 0.08 38 1012.1
20260504223010 21 293 6.4 14.5 0.00 0.08 0.08 39 1012.1
20260504221525 21 281 3.2 9.7 0.00 0.08 0.08 44 1012.1
20260504220009 21 268 0.0 6.4 0.00 0.08 0.08 47 1012.3
20260504214507 20 15 1.6 4.8 0.00 0.08 0.08 49 1012.4
20260504213014 20 287 1.6 11.3 0.00 0.08 0.08 49 1012.5
20260504211511 18 281 6.4 9.7 0.00 0.08 0.08 57 1012.7
20260504210020 17 238 3.2 11.3 0.08 0.08 0.08 63 1012.9
20260504204503 16 245 6.4 12.9 0.08 0.08 0.08 68 1013.1
20260504203007 15 229 6.4 9.7 0.08 0.08 0.08 72 1013.5
20260504201508 15 214 8.0 40.2 0.08 0.08 0.08 68 1013.4
20260504200014 18 264 6.4 17.7 0.00 0.00 0.00 50 1013.3
20260504194519 19 290 8.0 16.1 0.00 0.00 0.00 45 1013.0
20260504193003 20 265 11.3 20.9 0.00 0.00 0.00 43 1012.8
20260504191507 20 279 12.9 22.5 0.00 0.00 0.00 44 1013.0
20260504190015 20 234 12.9 24.1 0.00 0.00 0.00 47 1013.2
20260504184520 20 267 8.0 32.2 0.00 0.00 0.00 46 1013.5
20260504183021 19 242 16.1 35.4 0.00 0.00 0.00 47 1013.4
20260504181507 18 257 8.0 20.9 0.00 0.00 0.00 49 1013.7
20260504180011 18 247 16.1 25.7 0.00 0.00 0.00 49 1013.9
20260504174519 18 288 9.7 17.7 0.00 0.00 0.00 51 1014.1
20260504173017 16 181 8.0 14.5 0.00 0.00 0.00 55 1014.3
20260504171524 16 257 8.0 22.5 0.00 0.00 0.00 56 1014.6